Weather in Maysk

Russia / Altai Republic     52°19′55″N   88°08′30″E
temp.,
°C
wind,
m/s
gust,
m/s
humid.,
%
clouds,
%
prec.,
mm/h
press.,
hPa
HPBL,
m
7 march, sun
sun701:00−8s228051 0.0 102023
04:00−8sse1280100 0.0 101922
07:00−8s1280100 0.0 102121
10:00−4w1185100 0.0 1019129
13:00−3wnw2282100 0.0 1018453
16:00−3w1295100 0.4 1019331
19:00−5n1197100 0.7 102122
22:00−7se1192100 0.0 102421
8 march, mon
mon801:00−7se1291100 0.0 102421
04:00−8ese228990 0.0 102322
07:00−9se228487 0.0 102324
10:00−2ese128553 0.0 1019120
13:00+1e1110045 0.0 1015120
16:00+1w0110098 0.0 101352
19:000wsw119998 0.1 101327
22:000s2596100 0.4 1015161
9 march, tue
tue901:000wsw2699100 3.0 1017459
04:00−1sw11199100 1.1 10181188
07:00−4w41397100 2.9 1023934
10:00−5w4796100 2.4 1025664
13:00−4w2392100 3.1 1025578
16:00−3nw119496 0.1 1024406
19:00−7ne119687 0.1 102625
22:00−9e119467 0.0 102721
10 march, wed
wed1001:00−9se129377 0.0 102521
04:00−9se228946 0.0 102521
07:00−9se228530 0.0 102522
10:00−2ese128634 0.0 1022146
13:00+1ene1110026 0.0 1017167
16:00+1e1110096 0.0 101570
19:00−1ese229698 0.0 101438
22:00−5se338077 0.0 101542
11 march, thu
thu1101:00−5se337850 0.0 101355
04:00−4se337880 0.0 101256
07:00−2ssw118590 0.1 101221
10:000w1196100 0.2 101392
13:00−2wnw3598100 0.8 1014531
16:00−3wnw2495100 0.8 1016548
19:00−6w1198100 1.1 101939
22:00−7ssw1297100 0.3 102354